Location: ???????
(55.7027°N, 37.3832°E)
Time: 16:52:50
(UTC+00:00)

DELTA 2 DEB (DPAF) - Pass Details

Date: 14 April 2026
Orbit: 477 x 486 km, 98.3° (Epoch: 16 May)

Event Time Altitude Azimuth Distance (km) Brightness Sun altitude
Rises 22:07:01 0° 17° (NNE) 2,579 8.6 -24.2°
Reaches altitude 10° 22:09:07 10° 20° (NNE) 1,689 7.4 -24.1°
Enters shadow 22:12:01 52° 42° (NE) 611 4.2 -24.1°
